Regional Weather Roundup
Issued by NWS

Home | Current Version | Previous Version | Graphics & Text | Print | Product List | Glossary On
Versions: 1 2 3 4 5 6 7 8 9 10 11 12 13 14 15 16 17 18 19 20 21 22 23 24 25 26 27 28 29 30 31 32 33 34 35 36 37 38 39 40 41 42 43 44 45 46 47 48 49 50
000
ASUS43 KOAX 281002
RWRNE

WEATHER ROUNDUP FOR NEBRASKA
NATIONAL WEATHER SERVICE OMAHA NE
400 AM CST SAT FEB 28 2015

NOTES: SATELLITE DATA IS BEING USED TO AUGMENT CLOUD COVER ABOVE
       12000 FEET.
       "FAIR" INDICATES FEW OR NO CLOUDS BELOW 12,000 FEET WITH NO
       SIGNIFICANT WEATHER AND/OR OBSTRUCTIONS TO VISIBILITY.

  * THESE STATIONS DO NOT REPORT WEATHER SUCH AS RAIN...SNOW OR FOG.

NEZ001>004-019>022-054>056-281100-
NEBRASKA PANHANDLE

CITY           SKY/WX    TMP DP  RH WIND       PRES   REMARKS
SCOTTSBLUFF    CLEAR      7   3  84 E7        29.98F WCI  -5
ALLIANCE       CLEAR      6   3  87 S9        29.99F WCI  -8
CHADRON        CLEAR      8   2  76 SW6       30.03S WCI  -2
SIDNEY         PTCLDY     4   0  83 S7        29.97F WCI  -8
$$

NEZ057>060-069>072-079>082-281100-
SOUTHWEST NEBRASKA

CITY           SKY/WX    TMP DP  RH WIND       PRES   REMARKS
NORTH PLATTE   CLOUDY    13   5  70 S10       30.17F WCI   0
IMPERIAL         N/A     14   7  73 S12       30.11F WCI   0
MCCOOK         CLOUDY    15   7  70 S13       30.20F WCI   1
$$

NEZ005>010-023>029-035>040-094-281100-
NORTH CENTRAL NEBRASKA

CITY           SKY/WX    TMP DP  RH WIND       PRES   REMARKS
VALENTINE      CLEAR     15   5  64 SW13      30.14F WCI   1
AINSWORTH      PTCLDY    11   5  77 S10       30.17S WCI  -2
BROKEN BOW     CLOUDY    13   5  70 S9        30.22F WCI   1
ORD            CLEAR      6   0  76 S6        30.29F WCI  -4
$$

NEZ041-046>049-061>064-073>077-083>087-281100-
SOUTH CENTRAL NEBRASKA

CITY           SKY/WX    TMP DP  RH WIND       PRES   REMARKS
GRAND ISLAND   CLEAR      8   4  83 S8        30.35F WCI  -4
HASTINGS       CLEAR      7   3  84 S8        30.32F WCI  -6
HEBRON         CLEAR      6   1  82 CALM      30.42F
KEARNEY *      PTCLDY     3   0  85 S6        30.29F WCI  -8
$$

NEZ011>018-030>034-042>045-281100-
NORTHEAST NEBRASKA

CITY           SKY/WX    TMP DP  RH WIND       PRES   REMARKS
NORFOLK        CLEAR      8   1  73 S8        30.37F WCI  -4
BLAIR          CLEAR      8   1  70 SE6       30.44F WCI  -2
COLUMBUS *     CLEAR      7  -6  56 S6        30.41F WCI  -3
TEKAMAH        CLEAR      4  -1  80 S5        30.48F WCI  -5
$$

NEZ050>053-065>068-078-088>093-281100-
SOUTHEAST NEBRASKA

CITY           SKY/WX    TMP DP  RH WIND       PRES   REMARKS
LINCOLN        CLEAR      7   1  76 S6        30.46F WCI  -3
OMAHA EPPLEY   CLEAR      7   0  73 S7        30.50F WCI  -5
FALLS CITY     CLOUDY    13   5  70 SE3       30.50F
$$

NEZ044-045-051>053-067-281100-
OMAHA AREA

CITY           SKY/WX    TMP DP  RH WIND       PRES   REMARKS
OMAHA EPPLEY   CLEAR      7   0  73 S7        30.50F WCI  -5
BLAIR          CLEAR      8   1  70 SE6       30.44F WCI  -2
OFFUTT AFB     CLEAR      6  -1  73 E5        30.48F WCI  -2
$$


USA.gov is the U.S. government's official web portal to all federal, state and local government web resources and services.